sat.trackr.live / text

‹ back to catalog

BEIDOU-3S M2S (C58)

NORAD 40748 · 2015-037A

PAYLOAD INACTIVE UNKNOWN

§ Identity

Operator
Country
PRC
Launch date
2015-07-25
Launch site
XICLF
Launch vehicle
Mass (kg)
RCS (m²)
16.18

Purposes: nav

External: N2YO · Heavens-Above · Gunter

§ Orbital elements

Epoch: 2026-05-23T14:58:03.951840Z

Period
773.23 min
Inclination
54.8929°
Eccentricity
0.0007595
Mean motion
1.86231735 rev/d
Perigee alt
21,506.8 km
Apogee alt
21,549.2 km
Semi-major
27,906.1 km
B*
0.0000e+0
RAAN
302.8909°
Arg perigee
263.8817°
Mean anomaly
96.0113°
Rev number
7,366

§ Raw data

BEIDOU-3S M2S (C58)1 40748U 15037A   26143.62365685 -.00000076  00000+0  00000+0 0  99982 40748  54.8929 302.8909 0007595 263.8817  96.0113  1.86231735 73662

JSON: /api/v1/satellites/40748 · /tle

For live sub-satellite position, see the globe view (requires WebGL).

§ Visibility from observer

Set your observer location to see the next 7 days of passes ≥ 10°. The values pass through the URL so the page stays shareable.

No JS? Fill the form by hand. The geolocation button needs JavaScript.